World > North America > United States > Georgia > Adel

Hourly Adel, GA Regional Weather

Feedback E-mail the Weather

Quick WX

Adel, GA Weather Maps

°F °C°F °C
Adel Weather Map
UTC Time: 8/19/2022, 08:32
Your Time:

Adel, GA Regional Weather

Expires:202208190900;;300434
ASUS42 KFFC 190810
RWRGA 
WEATHER ROUNDUP FOR GEORGIA
NATIONAL WEATHER SERVICE PEACHTREE CITY GA
400 AM EDT FRI AUG 19 2022

NOTE: "FAIR" INDICATES FEW OR NO CLOUDS BELOW 12,000 FEET WITH NO
SIGNIFICANT WEATHER AND/OR OBSTRUCTIONS TO VISIBILITY. 

* = USE WITH CAUTION. THE STATIONS MARKED WITH AN ASTERISK MAY NOT
REPORT WEATHER SUCH AS PRECIPITATION, FOG, OR THUNDER AND ARE NOT 
QUALITY CONTROLLED BY NWS.

THE REMARK "TC" DENOTES TEMPERATURE READING IN DEGREES CELSIUS.


GAZ099>101-110>166-190900-
SOUTH GEORGIA
  
CITY           SKY/WX    TMP DP  RH WIND       PRES   REMARKS
SAVANNAH       CLOUDY    73  72  96 S5        29.97F                  
VALDOSTA       MOCLDY    74  72  93 CALM      29.98S FOG              
ALMA           CLOUDY    75  74  96 S5        29.97S                  
ST SIMONS      PTCLDY    76  72  87 SW7       29.98R                  
FT STEWART     CLOUDY    73  72  96 CALM      29.95S                  
ALBANY         FOG       73  72  96 S3        29.98F VSB 3/4          
HUNTER AFB     CLOUDY    74  74 100 S5        29.95S                  
MOODY AFB      CLOUDY    74  73  93 S3        29.97R                  
BRUNSWICK      PTCLDY    73  72  98 S6        29.98S                  

  
CITY           SKY/WX    TMP DP  RH WIND       PRES   REMARKS
BAINBRIDGE*    PTCLDY    73  72  98 SW5       29.97F                  
MOULTRIE*      MOCLDY    72  70  94 CALM      29.99R                  
VIDALIA*       FOG       73  73 100 CALM      29.99R VSB 1            
WAYCROSS*      CLOUDY    73  72  96 SW6       29.98S                  
DOUGLAS*       FOG       74  73  98 CALM      29.99S VSB 1/2          
$$
  

SKY/WX - Weather  TMP - Temperature  DP - Dew Point  RH - Humidity
WIND - Wind Direction/Speed PRES - Barometric Pressure VSB - Visibility
WCI - Wind Chill Index E13G22 Wind - East Wind 13 mph/Gusts of 22 mph

Trending Headlines

Adel Radar Loop



Adel Quick Facts


National Two Day Weather Forecast


E-mail the Adel Weather Forecast

Voice your opinion or tell us about page issues...